Location: Dötzum
(52.0808°N, 9.8063°E)
Time: 05:19:20
(UTC+00:00)

USA 290 - Pass Details

Date: 27 May 2022
Orbit: 401 x 408 km, 73.6° (Epoch: 11 June)

Event Time Altitude Azimuth Distance (km) Brightness Sun altitude
Exits shadow 00:43:53 12° 262° (W) 1,373 4.6 -14.3°
Maximum altitude 00:46:03 20° 308° (NW) 1,007 4.4 -14.2°
Drops below altitude 10° 00:48:31 10° 359° (N) 1,469 6.1 -14.0°
Sets 00:50:56 0° 17° (NNE) 2,334 8.0 -13.9°
